[TLELIST] Archives

 

Current TLEs

January 27th 2007 PDT

HST 1 20580U 90037B 07026.37375781 .00000336 00000-0 13302-4 0 7904 2 20580 028.4688 034.8275 0003382 035.7208 324.3605 15.00180469718646 ISS (ZARYA) 1 25544U 98067A 07027.50300565 .00014560 00000-0 88173-4 0 5241 2 25544 051.6354 110.9925 0022882 137.8492 339.7288 15.77523360468556 CXO 1 25867U 99040B 07024.87500000 +.00000313 +00000-0 +00000-0 0 00272 2 25867 061.0370 092.3812 6043011 286.6137 359.2982 00.37807883001711 ____________________________________________________________________ These 2-Line ...Continue Reading

Current TLEs

January 26th 2007 PDT

HST 1 20580U 90037B 07025.37583857 +.00000362 +00000-0 +15286-4 0 07922 2 20580 028.4686 041.3344 0003364 024.1992 335.8758 15.00180216718495 ISS (ZARYA) 1 25544U 98067A 07026.48796005 .00014753 00000-0 89388-4 0 5204 2 25544 051.6353 116.2327 0022989 134.0667 335.1391 15.77493051468391 CXO 1 25867U 99040B 07024.87500000 +.00000313 +00000-0 +00000-0 0 00272 2 25867 061.0370 092.3812 6043011 286.6137 359.2982 00.37807883001711 ____________________________________________________________________ These 2-Line ...Continue Reading

Current TLEs

January 25th 2007 PDT

HST 1 20580U 90037B 07025.24278270 .00000325 00000-0 12391-4 0 7897 2 20580 028.4687 042.2034 0003301 021.2408 338.8314 15.00179881718478 ISS (ZARYA) 1 25544U 98067A 07025.47449385 .00015854 00000-0 95858-4 0 5143 2 25544 051.6349 121.4651 0023013 130.6956 339.2314 15.77465724468235 CXO 1 25867U 99040B 07024.87500000 +.00000313 +00000-0 +00000-0 0 00272 2 25867 061.0370 092.3812 6043011 286.6137 359.2982 00.37807883001711 ____________________________________________________________________ These 2-Line ...Continue Reading

Current TLEs

January 24th 2007 PDT

HST 1 20580U 90037B 07023.44652672 .00000396 00000-0 17970-4 0 7884 2 20580 028.4682 053.9143 0003303 000.5336 359.5257 15.00179481718208 ISS (ZARYA) 1 25544U 98067A 07024.52434380 .00017153 00000-0 10347-3 0 5072 2 25544 051.6339 126.3688 0023063 127.0183 343.5393 15.77439425468082 CXO 1 25867U 99040B 07022.20833333 +.00000380 +00000-0 +00000-0 0 00268 2 25867 061.0145 092.4515 6039542 286.6120 356.3592 00.37808033001700 ____________________________________________________________________ These 2-Line ...Continue Reading

Current TLEs

January 23rd 2007 PDT

HST 1 20580U 90037B 07022.44860660 +.00000401 +00000-0 +18348-4 0 07912 2 20580 028.4681 060.4211 0003331 348.6962 011.3552 15.00178987718052 ISS (ZARYA) 1 25544U 98067A 07023.51024573 .00017087 00000-0 10328-3 0 5007 2 25544 051.6342 131.6051 0022876 123.0102 344.8782 15.77404214467923 CXO 1 25867U 99040B 07022.20833333 +.00000380 +00000-0 +00000-0 0 00268 2 25867 061.0145 092.4515 6039542 286.6120 356.3592 00.37808033001700 ____________________________________________________________________ These 2-Line ...Continue Reading

Current TLEs

January 22nd 2007 PDT

HST 1 20580U 90037B 07021.45068604 +.00000446 +00000-0 +21856-4 0 07928 2 20580 028.4678 066.9275 0003362 337.1547 022.8892 15.00178661717901 ISS (ZARYA) 1 25544U 98067A 07022.36130190 .00021130 00000-0 12683-3 0 4922 2 25544 051.6339 137.5340 0023036 118.8092 300.3048 15.77372668467743 CXO 1 25867U 99040B 07022.20833333 +.00000380 +00000-0 +00000-0 0 00268 2 25867 061.0145 092.4515 6039542 286.6120 356.3592 00.37808033001700 ____________________________________________________________________ These 2-Line ...Continue Reading

Current TLEs

January 21st 2007 PDT

HST 1 20580U 90037B 07019.52137260 .00000401 00000-0 18350-4 0 7856 2 20580 028.4673 079.5066 0003508 314.0082 046.0218 15.00177215717616 ISS (ZARYA) 1 25544U 98067A 07020.85501619 .00023417 00000-0 14042-3 0 4811 2 25544 051.6332 145.3088 0023123 113.6177 026.3957 15.77314733467503 CXO 1 25867U 99040B 07019.83333333 +.00000386 +00000-0 +00000-0 0 00253 2 25867 060.9979 092.5088 6034619 286.6202 033.0872 00.37803550001709 ____________________________________________________________________ These 2-Line ...Continue Reading

Current TLEs

January 20th 2007 PDT

HST 1 20580U 90037B 07019.52137260 .00000401 00000-0 18350-4 0 7856 2 20580 028.4673 079.5066 0003508 314.0082 046.0218 15.00177215717616 ISS (ZARYA) 1 25544U 98067A 07020.52286064 .00023733 00000-0 14232-3 0 4787 2 25544 051.6325 147.0212 0023258 112.4992 300.1636 15.77300086467451 CXO 1 25867U 99040B 07019.83333333 +.00000386 +00000-0 +00000-0 0 00253 2 25867 060.9979 092.5088 6034619 286.6202 033.0872 00.37803550001709 ____________________________________________________________________ These 2-Line ...Continue Reading

Current TLEs

January 19th 2007 PDT

HST 1 20580U 90037B 07017.52552975 +.00000356 +00000-0 +14796-4 0 07936 2 20580 028.4667 092.5185 0003682 291.2977 068.7222 15.00176061717319 ISS (ZARYA) 1 25544U 98067A 07019.51577071 .00024008 00000-0 14421-3 0 4736 2 25544 051.6320 152.2186 0023288 108.8482 341.5014 15.77252628467299 CXO 1 25867U 99040B 07016.91666667 +.00000382 +00000-0 +00000-0 0 00243 2 25867 060.9861 092.5703 6027903 286.6686 356.0120 00.37802642001689 ____________________________________________________________________ These 2-Line ...Continue Reading

Current TLEs

January 18th 2007 PDT

HST 1 20580U 90037B 07018.45692315 .00000340 00000-0 13574-4 0 7848 2 20580 028.4670 086.4458 0003633 301.2533 058.7704 15.00176390717458 ISS (ZARYA) 1 25544U 98067A 07018.50107321 .00022068 00000-0 13324-3 0 4657 2 25544 051.6325 157.4555 0023327 105.3011 339.6680 15.77196590467130 CXO 1 25867U 99040B 07016.91666667 +.00000382 +00000-0 +00000-0 0 00243 2 25867 060.9861 092.5703 6027903 286.6686 356.0120 00.37802642001689 ____________________________________________________________________ These 2-Line ...Continue Reading
  • This mailing list is a public mailing list - anyone may join or leave, at any time.
  • This mailing list is announce-only.

International Space Station (ISS) / Hubble Space Telescope (HST) / Chandra X-Ray Observatory Orbital Data via EMAIL

Privacy Policy:

Private list